Ana Sayfa
METAR-TAF:

METAR-TAF

Havaalanları :

Wings Field

Philadelphia / Blue Bell, Pensilvanya, Amerika Birleşik Devletleri

Enlem: 40-08-15N, Boylam: 075-15-54W, yükseklik: 92 m

Güncel hava durumu gözlemi

Rapor saat 14:35 UTC de 25 dakika önce yapıldı.
Rüzgar kuzeybatıdan 14 kt ve 23 kt'a kadar ani rüzgarlar, batı ve kuzey arasında değişken
Sıcaklık 9°C
Nem 43%
Basınç 1009 hPa
Görüş mesafesi: 16.1 km
Açık gökyüzü

METAR: KLOM 021435Z AUTO 31014G23KT 260V350 10SM CLR 09/M03 A2980 RMK AO2 T00881031

Saat: 11:00 (15:00 UTC)


TAF: eksik

4.000'den fazla havaalanı için hava durumu gözlemleri ve tahminleri (METAR ve TAF raporları).

Kullanılabilir istasyonlar harita üzerinde sarı ve kırmızı noktalarla gösterilir.

İstasyonun adını görmek için fareyi noktanın üzerinde gezdirin.

Sonrasında hava gözlem ve tahminlerini görmek için tıklayın.

Haritayı değiştirmek için: yaklaştırmak için siyah artı işaretli yeşil düğmeye ve uzaklaştırmak için de eksi işaretli düğmeye hızla tıklayın; bitişik haritalar için yeşil okları kullanın.


METAR-TAF: